Location: Unspecified
(43.4354°N, 0.0000°E)
Time: 00:37:17
(UTC+00:00)

Transit 2A - Pass Details

Date: 24 June 2019
Orbit: 594 x 964 km, 66.7° (Epoch: 20 July)

Event Time Altitude Azimuth Distance (km) Brightness Sun altitude
Rises 08:01:09 0° 331° (NNW) 3,459 9.1 37.1°
Reaches altitude 10° 08:03:50 10° 337° (NNW) 2,461 8.5 37.6°
Maximum altitude 08:09:19 50° 52° (NE) 990 7.8 38.6°
Drops below altitude 10° 08:14:12 10° 128° (SE) 2,203 9.2 39.5°
Sets 08:16:30 0° 134° (SE) 3,063 9.7 39.9°
